Location: Paris
(48.8566°N, 2.3522°E)
Time: 11:56:50
(UTC+02:00)

Tiangong - Pass Details

Date: 03 October 2021
Orbit: 382 x 385 km, 41.5° (Epoch: 15 October)

Event Time Altitude Azimuth Distance (km) Brightness Sun altitude
Exits shadow 07:00:54 11° 235° (SW) 1,360 3.3 -9.4°
Maximum altitude 07:03:01 18° 191° (SSW) 1,015 3.0 -9.1°
Drops below altitude 10° 07:05:16 10° 146° (SE) 1,396 4.3 -8.7°
Sets 07:07:44 0° 126° (SE) 2,246 5.8 -8.3°
